timestamp,wind_dir_avg,wind_spd_avg,wind_spd_max_dir,wind_spd_gust,battery_voltage,lat,long
2023-07-06 00:04:00+00:00,205.0,7.59,206.0,8.52,13.13,47.59359,-54.27349
2023-07-06 00:14:00+00:00,203.0,6.18,201.0,7.09,12.57,47.59359,-54.27349
2023-07-06 00:24:00+00:00,203.0,7.01,206.0,7.82,12.57,47.59359,-54.27349
2023-07-06 00:34:00+00:00,204.0,6.91,204.0,7.8,12.57,47.59359,-54.27349
2023-07-06 00:44:00+00:00,201.0,5.18,202.0,5.39,12.57,47.59359,-54.27349
2023-07-06 00:54:00+00:00,315.0,0.01,205.0,0.0,12.57,47.59359,-54.27349
2023-07-06 01:04:00+00:00,315.0,0.01,190.0,0.0,12.57,47.59359,-54.27349
2023-07-06 01:14:01+00:00,215.0,4.52,215.0,4.89,12.41,47.59359,-54.27349
2023-07-06 01:24:01+00:00,216.0,5.56,215.0,6.31,12.41,47.59359,-54.27349
2023-07-06 01:34:01+00:00,210.0,4.76,207.0,5.11,12.41,47.59359,-54.27349
2023-07-06 01:44:01+00:00,215.0,3.27,209.0,3.89,12.41,47.59359,-54.27349
2023-07-06 01:54:01+00:00,183.0,2.44,196.0,3.29,12.41,47.59359,-54.27349
2023-07-06 02:04:01+00:00,215.0,3.4,213.0,3.9,12.41,47.59359,-54.27349
2023-07-06 02:14:00+00:00,220.0,3.48,218.0,3.87,12.41,47.59359,-54.27349
2023-07-06 02:24:00+00:00,212.0,2.5,214.0,2.68,12.41,47.59359,-54.27349
2023-07-06 02:34:00+00:00,187.0,3.99,191.0,4.23,12.41,47.59359,-54.27349
2023-07-06 02:44:00+00:00,168.0,2.42,172.0,2.77,12.41,47.59359,-54.27349
2023-07-06 02:54:00+00:00,179.0,2.75,176.0,3.04,12.41,47.59359,-54.27349
2023-07-06 03:04:00+00:00,174.0,2.98,179.0,3.34,12.41,47.59359,-54.27349
2023-07-06 03:14:00+00:00,163.0,2.29,163.0,2.36,12.41,47.59359,-54.27349
2023-07-06 03:24:00+00:00,179.0,2.02,183.0,2.3,12.41,47.59359,-54.27349
2023-07-06 03:34:00+00:00,175.0,2.57,178.0,2.94,12.41,47.59359,-54.27349
2023-07-06 03:44:00+00:00,187.0,2.08,187.0,2.27,12.41,47.59359,-54.27349
2023-07-06 03:54:00+00:00,216.0,2.37,215.0,2.56,12.41,47.59359,-54.27349
2023-07-06 04:04:00+00:00,232.0,1.85,229.0,2.13,12.41,47.59359,-54.27349
2023-07-06 04:14:00+00:00,229.0,1.32,229.0,1.53,12.33,47.59359,-54.27349
2023-07-06 04:24:00+00:00,214.0,1.45,214.0,1.56,12.33,47.59359,-54.27349
2023-07-06 04:34:00+00:00,302.0,1.08,308.0,1.3,12.33,47.59359,-54.27349
2023-07-06 04:44:00+00:00,317.0,0.97,323.0,1.19,12.33,47.59359,-54.27349
2023-07-06 04:54:00+00:00,236.0,0.72,231.0,0.94,12.33,47.59359,-54.27349
2023-07-06 05:04:00+00:00,159.0,0.39,175.0,0.7,12.33,47.59359,-54.27349
2023-07-06 05:14:01+00:00,65.0,1.75,67.0,2.36,12.33,47.59359,-54.27349
2023-07-06 05:24:01+00:00,19.0,0.11,1.0,0.79,12.33,47.59359,-54.27349
2023-07-06 05:34:01+00:00,326.0,0.94,324.0,1.15,12.33,47.59359,-54.27349
2023-07-06 05:44:01+00:00,331.0,1.7,322.0,1.89,12.33,47.59359,-54.27349
2023-07-06 05:54:01+00:00,18.0,1.49,22.0,1.66,12.33,47.59359,-54.27349
2023-07-06 06:04:01+00:00,47.0,2.45,49.0,2.66,12.33,47.59359,-54.27349
2023-07-06 06:14:00+00:00,58.0,2.79,57.0,3.05,12.33,47.59359,-54.27349
2023-07-06 06:24:00+00:00,67.0,2.8,67.0,3.09,12.33,47.59359,-54.27349
2023-07-06 06:34:00+00:00,65.0,3.4,66.0,3.66,12.33,47.59359,-54.27349
2023-07-06 06:44:00+00:00,70.0,3.34,71.0,3.44,12.33,47.59359,-54.27349
2023-07-06 06:54:00+00:00,74.0,3.57,78.0,4.18,12.33,47.59359,-54.27349
2023-07-06 07:04:00+00:00,68.0,3.39,69.0,3.5,12.33,47.59359,-54.27349
2023-07-06 07:14:01+00:00,69.0,3.78,70.0,3.92,12.33,47.59359,-54.27349
2023-07-06 07:24:01+00:00,83.0,2.71,90.0,3.41,12.33,47.59359,-54.27349
2023-07-06 07:34:01+00:00,72.0,3.38,71.0,3.7,12.33,47.59359,-54.27349
2023-07-06 07:44:01+00:00,90.0,2.62,74.0,3.26,12.33,47.59359,-54.27349
2023-07-06 07:54:01+00:00,72.0,2.62,70.0,3.26,12.33,47.59359,-54.27349
2023-07-06 08:04:01+00:00,112.0,0.99,89.0,1.96,12.33,47.59359,-54.27349
2023-07-06 08:14:00+00:00,140.0,0.68,154.0,1.18,12.25,47.59359,-54.27349
2023-07-06 08:24:00+00:00,69.0,0.62,82.0,0.81,12.25,47.59359,-54.27349
2023-07-06 08:34:00+00:00,71.0,0.34,48.0,0.67,12.25,47.59359,-54.27349
2023-07-06 08:44:00+00:00,2.0,0.85,356.0,1.07,12.25,47.59359,-54.27349
2023-07-06 08:54:00+00:00,16.0,1.37,14.0,1.57,12.25,47.59359,-54.27349
2023-07-06 09:04:00+00:00,12.0,2.08,8.0,2.23,12.25,47.59359,-54.27349
2023-07-06 09:14:01+00:00,13.0,2.48,10.0,2.86,12.33,47.59359,-54.27349
2023-07-06 09:24:01+00:00,49.0,2.5,53.0,3.0,12.33,47.59359,-54.27349
2023-07-06 09:34:01+00:00,46.0,1.4,60.0,2.15,12.33,47.59359,-54.27349
2023-07-06 09:44:01+00:00,60.0,0.56,65.0,1.55,12.33,47.59359,-54.27349
2023-07-06 09:54:01+00:00,72.0,1.2,69.0,1.56,12.33,47.59359,-54.27349
2023-07-06 10:04:01+00:00,63.0,0.63,66.0,1.62,12.33,47.59359,-54.27349
2023-07-06 10:14:00+00:00,94.0,0.46,275.0,2.11,12.81,47.59359,-54.27349
2023-07-06 10:24:00+00:00,87.0,0.78,64.0,1.36,12.81,47.59359,-54.27349
2023-07-06 10:34:00+00:00,116.0,0.89,129.0,1.31,12.81,47.59359,-54.27349
2023-07-06 10:44:00+00:00,133.0,0.83,127.0,1.33,12.81,47.59359,-54.27349
2023-07-06 10:54:00+00:00,117.0,0.37,142.0,0.66,12.81,47.59359,-54.27349
2023-07-06 11:04:00+00:00,205.0,1.18,200.0,1.61,12.81,47.59359,-54.27349
2023-07-06 11:14:01+00:00,261.0,1.09,268.0,1.37,13.13,47.59359,-54.27349
2023-07-06 11:24:01+00:00,231.0,1.03,230.0,1.14,13.13,47.59359,-54.27349
2023-07-06 11:34:01+00:00,276.0,0.82,281.0,0.92,13.13,47.59359,-54.27349
2023-07-06 11:44:01+00:00,300.0,0.52,305.0,0.61,13.13,47.59359,-54.27349
2023-07-06 11:54:01+00:00,231.0,0.9,224.0,1.09,13.13,47.59359,-54.27349
2023-07-06 12:04:01+00:00,217.0,1.0,216.0,1.34,13.13,47.59359,-54.27349
2023-07-06 12:14:01+00:00,195.0,1.49,207.0,1.68,13.21,47.59359,-54.27349
2023-07-06 12:24:01+00:00,125.0,2.51,120.0,3.23,13.21,47.59359,-54.27349
2023-07-06 12:34:01+00:00,167.0,2.5,140.0,3.21,13.21,47.59359,-54.27349
2023-07-06 12:44:01+00:00,205.0,2.56,228.0,3.78,13.21,47.59359,-54.27349
2023-07-06 12:54:01+00:00,218.0,3.58,221.0,4.22,13.21,47.59359,-54.27349
2023-07-06 13:04:01+00:00,225.0,4.08,222.0,4.56,13.21,47.59359,-54.27349
2023-07-06 13:14:00+00:00,213.0,3.79,222.0,5.16,13.6,47.59359,-54.27349
2023-07-06 13:24:00+00:00,206.0,4.49,198.0,4.62,13.6,47.59359,-54.27349
2023-07-06 13:34:00+00:00,242.0,10.04,240.0,11.58,13.6,47.59359,-54.27349
2023-07-06 13:44:00+00:00,244.0,9.67,247.0,11.0,13.6,47.59359,-54.27349
2023-07-06 13:54:00+00:00,231.0,5.45,240.0,7.98,13.6,47.59359,-54.27349
2023-07-06 14:04:00+00:00,233.0,5.99,249.0,9.46,13.6,47.59359,-54.27349
2023-07-06 14:14:00+00:00,231.0,4.55,231.0,5.56,13.68,47.59359,-54.27349
2023-07-06 14:24:00+00:00,227.0,5.02,232.0,6.09,13.68,47.59359,-54.27349
2023-07-06 14:34:00+00:00,222.0,4.13,223.0,4.63,13.68,47.59359,-54.27349
2023-07-06 14:44:00+00:00,241.0,3.55,243.0,3.79,13.68,47.59359,-54.27349
2023-07-06 14:54:00+00:00,205.0,3.3,219.0,4.33,13.68,47.59359,-54.27349
2023-07-06 15:04:00+00:00,209.0,3.57,215.0,3.94,13.68,47.59359,-54.27349
2023-07-06 15:14:00+00:00,207.0,3.65,216.0,4.0,13.68,47.59359,-54.27349
2023-07-06 15:24:00+00:00,214.0,5.14,213.0,5.35,13.68,47.59359,-54.27349
2023-07-06 15:34:00+00:00,215.0,4.96,215.0,5.26,13.68,47.59359,-54.27349
2023-07-06 15:44:00+00:00,218.0,6.02,218.0,6.5,13.68,47.59359,-54.27349
2023-07-06 15:54:00+00:00,206.0,6.9,206.0,7.22,13.68,47.59359,-54.27349
2023-07-06 16:04:00+00:00,213.0,6.11,214.0,6.63,13.68,47.59359,-54.27349
2023-07-06 16:14:00+00:00,212.0,6.15,211.0,6.3,13.68,47.59359,-54.27349
2023-07-06 16:24:00+00:00,206.0,5.33,206.0,5.69,13.68,47.59359,-54.27349
2023-07-06 16:34:00+00:00,213.0,5.31,215.0,6.02,13.68,47.59359,-54.27349
2023-07-06 16:44:00+00:00,211.0,5.11,210.0,5.45,13.68,47.59359,-54.27349
2023-07-06 16:54:00+00:00,213.0,3.72,211.0,4.25,13.68,47.59359,-54.27349
2023-07-06 17:04:00+00:00,191.0,4.29,191.0,4.55,13.68,47.59359,-54.27349
2023-07-06 17:14:00+00:00,202.0,5.31,202.0,5.84,13.68,47.59359,-54.27349
2023-07-06 17:24:00+00:00,214.0,4.44,207.0,5.18,13.68,47.59359,-54.27349
2023-07-06 17:34:00+00:00,201.0,4.47,202.0,4.73,13.68,47.59359,-54.27349
2023-07-06 17:44:00+00:00,195.0,4.3,195.0,4.67,13.68,47.59359,-54.27349
2023-07-06 17:54:00+00:00,212.0,4.53,213.0,4.91,13.68,47.59359,-54.27349
2023-07-06 18:04:00+00:00,225.0,3.68,222.0,4.15,13.68,47.59359,-54.27349
2023-07-06 18:14:00+00:00,222.0,2.74,219.0,3.07,13.68,47.59359,-54.27349
2023-07-06 18:24:00+00:00,225.0,2.6,223.0,3.06,13.68,47.59359,-54.27349
2023-07-06 18:34:00+00:00,211.0,2.79,213.0,3.01,13.68,47.59359,-54.27349
2023-07-06 18:44:00+00:00,212.0,3.68,212.0,3.85,13.68,47.59359,-54.27349
2023-07-06 18:54:00+00:00,206.0,3.94,208.0,4.26,13.68,47.59359,-54.27349
2023-07-06 19:04:00+00:00,200.0,3.64,199.0,4.01,13.68,47.59359,-54.27349
2023-07-06 19:14:00+00:00,183.0,4.74,186.0,4.99,13.68,47.59359,-54.27349
2023-07-06 19:24:00+00:00,188.0,5.49,187.0,5.93,13.68,47.59359,-54.27349
2023-07-06 19:34:00+00:00,208.0,4.41,206.0,4.69,13.68,47.59359,-54.27349
2023-07-06 19:44:00+00:00,188.0,3.38,193.0,3.77,13.68,47.59359,-54.27349
2023-07-06 19:54:00+00:00,177.0,2.65,177.0,3.01,13.68,47.59359,-54.27349
2023-07-06 20:04:00+00:00,189.0,3.03,189.0,3.35,13.68,47.59359,-54.27349
2023-07-06 20:14:00+00:00,205.0,3.72,204.0,4.12,13.68,47.59359,-54.27349
2023-07-06 20:24:00+00:00,191.0,4.65,195.0,4.94,13.68,47.59359,-54.27349
2023-07-06 20:34:00+00:00,195.0,5.45,195.0,6.09,13.68,47.59359,-54.27349
2023-07-06 20:44:00+00:00,188.0,5.04,192.0,5.46,13.68,47.59359,-54.27349
2023-07-06 20:54:00+00:00,189.0,4.64,191.0,4.98,13.68,47.59359,-54.27349
2023-07-06 21:04:00+00:00,205.0,5.3,205.0,5.34,13.68,47.59359,-54.27349
2023-07-06 21:14:01+00:00,188.0,4.47,189.0,4.79,13.53,47.59359,-54.27349
2023-07-06 21:24:01+00:00,190.0,4.35,195.0,5.07,13.53,47.59359,-54.27349
2023-07-06 21:34:01+00:00,208.0,5.87,209.0,6.49,13.53,47.59359,-54.27349
2023-07-06 21:44:01+00:00,230.0,8.72,235.0,10.51,13.53,47.59359,-54.27349
2023-07-06 21:54:01+00:00,222.0,5.92,237.0,7.54,13.53,47.59359,-54.27349
2023-07-06 22:04:01+00:00,315.0,0.01,235.0,0.0,13.53,47.59359,-54.27349
2023-07-06 22:14:00+00:00,213.0,6.48,214.0,6.82,13.13,47.59359,-54.27349
2023-07-06 22:24:00+00:00,204.0,5.33,205.0,5.59,13.13,47.59359,-54.27349
2023-07-06 22:34:00+00:00,206.0,4.88,204.0,5.2,13.13,47.59359,-54.27349
2023-07-06 22:44:00+00:00,197.0,4.96,195.0,5.27,13.13,47.59359,-54.27349
2023-07-06 22:54:00+00:00,203.0,4.91,203.0,5.32,13.13,47.59359,-54.27349
2023-07-06 23:04:00+00:00,202.0,4.68,202.0,5.12,13.13,47.59359,-54.27349
2023-07-06 23:14:00+00:00,202.0,3.84,200.0,4.49,12.73,47.59359,-54.27349
2023-07-06 23:24:00+00:00,205.0,4.38,205.0,4.72,12.73,47.59359,-54.27349
2023-07-06 23:34:00+00:00,198.0,4.1,202.0,4.48,12.73,47.59359,-54.27349
2023-07-06 23:44:00+00:00,190.0,5.0,194.0,5.39,12.73,47.59359,-54.27349
2023-07-06 23:54:00+00:00,194.0,5.38,196.0,5.83,12.73,47.59359,-54.27349
